Printer-friendly version
Follow the MPC on Twitter Follow the MPC on Facebook The MPC blog
Minor Planet Center

MPEC 2004-Q46 : 2004 QF14

The following Minor Planet Electronic Circular may be linked-to from your own Web pages, but must not otherwise be redistributed electronically.

A form allowing access to any MPEC is at the bottom of this page.


Read MPEC 2004-Q45 Read MPEC 2004-Q47


M.P.E.C. 2004-Q46                                Issued 2004 Aug. 26, 00:07 UT

     The Minor Planet Electronic Circulars contain information on unusual
         minor planets and routine data on comets.  They are published
   on behalf of Commission 20 of the International Astronomical Union by the
          Minor Planet Center, Smithsonian Astrophysical Observatory,
                          Cambridge, MA 02138, U.S.A.

                  Supported in part by the Brinson Foundation
             Prepared using the Tamkin Foundation Computer Network

                              MPC@CFA.HARVARD.EDU
          URL http://cfa-www.harvard.edu/iau/mpc.html  ISSN 1523-6714

                                   2004 QF14

Observations:
     K04Q14F* C2004 08 25.23959 21 38 12.38 +26 56 05.3          18.7   EQ046704
     K04Q14F  C2004 08 25.24946 21 38 19.36 +26 55 17.8          18.5   EQ046704
     K04Q14F  C2004 08 25.25934 21 38 26.12 +26 54 31.3          18.8   EQ046704
     K04Q14F  C2004 08 25.26921 21 38 32.81 +26 53 45.6          18.7   EQ046704
     K04Q14F  C2004 08 25.28029 21 38 40.60 +26 52 50.4          18.2   EQ046704
     K04Q14F  C2004 08 25.29023 21 38 47.33 +26 52 05.0          19.7   EQ046704
     K04Q14F  C2004 08 25.30017 21 38 54.30 +26 51 15.9          18.6   EQ046704
     K04Q14F  C2004 08 25.31011 21 39 01.17 +26 50 27.9          18.6   EQ046704
     K04Q14F  C2004 08 25.32005 21 39 08.01 +26 49 39.7          18.4   EQ046704
     K04Q14F  C2004 08 25.90768 21 46 08.74 +26 03 41.5          18.2 R EQ046J95
     K04Q14F  C2004 08 25.91010 21 46 10.28 +26 03 30.9          18.1 R EQ046J95
     K04Q14F  C2004 08 25.91236 21 46 11.73 +26 03 20.6          18.2 R EQ046J95
     K04Q14F  C2004 08 25.95698 21 46 39.94 +26 00 03.5          19.2 R EQ046951
     K04Q14F  C2004 08 25.95837 21 46 40.87 +25 59 57.5          18.9 R EQ046951
     K04Q14F  C2004 08 25.95977 21 46 41.77 +25 59 48.8          19.3 R EQ046951
     K04Q14F  C2004 08 25.96116 21 46 42.55 +25 59 44.2          21.6 R EQ046951
     K04Q14F  C2004 08 25.96255 21 46 43.47 +25 59 37.3          19.8 R EQ046951

Observer details:
704 Lincoln Laboratory ETS, New Mexico.  Observers M. Blythe, F. Shelly,
    M. Bezpalko, R. Huber, L. Manguso, D. Torres, R. Kracke, M. McCleary,
    H. Stange, A. Milner.  Measurers J. Stuart, R. Sayer, J. Evans, J. Kommers.
    1.0-m f/2.15 reflector + CCD.
951 Highworth.  Observer J. Rock.  0.25-m f/6.3 Schmidt-Cassegrain + CCD.
J95 Great Shefford.  Observer P. Birtwhistle.  0.30-m f/6.3 Schmidt-Cassegrain
    + CCD.

Orbital elements:
2004 QF14
Epoch 2004 Aug. 23.0 TT = JDT 2453240.5                 MPC
M  11.84595              (2000.0)            P               Q
n   0.36470469     Peri.    6.44590     +0.36336862     +0.93047850
a   1.9401791      Node   284.86908     -0.85690736     +0.31416407
e   0.4994590      Incl.    2.76448     -0.36561322     +0.18844281
P   2.70           H   24.2           G   0.15
From 17 observations 2004 Aug. 25-25.

Ephemeris:
2004 QF14                a,e,i = 1.94, 0.50, 3                   q = 0.9711
Date    TT    R. A. (2000) Decl.     Delta      r     Elong.  Phase     V
2004 08 23    21 03.92   +30 08.4    0.051    1.049   135.6    42.4    19.5
2004 09 02    22 35.63   +19 25.7    0.099    1.098   152.6    25.0    20.5
2004 09 12    23 02.31   +14 18.4    0.157    1.156   160.9    16.5    21.4
2004 09 22    23 14.70   +11 08.7    0.222    1.219   164.4    12.8    22.1

Timothy B. Spahr             (C) Copyright 2004 MPC           M.P.E.C. 2004-Q46

Read MPEC 2004-Q45 Read MPEC 2004-Q47


MPEC number:

Enter an MPEC number in one of the following forms:

  • 1997-B01 (the full form)
  • J97B01 (the packed version of the full form)
  • B01 (the abbreviated form)

Valid HTML 4.01!